Des Moines, IA

4:05 PM CST on February 06, 2016 (GMT -0600)
Des Moines International

Weather History for KDSM - February, 2013

Change the Weather History Date:

Thursday, February 28, 2013

  Actual Average Record
Temperature  
Mean Temperature 28 °F 32 °F  
Max Temperature 32 °F 41 °F 69 °F (1932)
Min Temperature 24 °F 24 °F -16 °F (1962)
Degree Days  
Heating Degree Days 37 33  
Month to date heating degree days 1015 1051  
Since 1 July heating degree days 4357 4831  
Cooling Degree Days 0 0  
Month to date cooling degree days 0 0  
Year to date cooling degree days 0 0  
Moisture  
Dew Point 21 °F    
Average Humidity 74    
Maximum Humidity 81    
Minimum Humidity 66    
Precipitation  
Precipitation T in 0.05 in 1.29 in (1987)
Month to date precipitation 1.74 1.28  
Year to date precipitation 2.85 2.28  
Snow  
Snow T in 0.20 in 14.20 in (1939)
Month to date snowfall 15.7 7.9  
Since 1 July snowfall 38.7 28.3  
Snow Depth 9.00 in    
Sea Level Pressure  
Sea Level Pressure 30.13 in    
Wind  
Wind Speed 11 mph (NW)    
Max Wind Speed 18 mph    
Max Gust Speed 22 mph    
Visibility 10 miles    
Events Snow    
T = Trace of Precipitation, MM = Missing Value Source: NWS Daily Summary

Daily Weather History Graph

Daily Weather History Graph

Search for Another Location

Airport or City:

Trip Planner

Search our weather history database for the weather conditions in past years. The results will help you decide how hot, cold, wet, or windy it might be!

Date:

Astronomy

Feb. 28, 2013 Rise Set
Actual Time 6:50 AM CST 6:04 PM CST
Civil Twilight 6:22 AM CST 6:32 PM CST
Nautical Twilight 5:50 AM CST 7:04 PM CST
Astronomical Twilight 5:18 AM CST 7:36 PM CST
Moon 9:35 PM CST (2/28) 7:57 AM CST (2/28)
Length of Visible Light 12h 09m
Length of Day
11h 13m
Waning Gibbous, 90% of the Moon is Illuminated
Feb 28
Waning Gibbous
Mar 4
Last Quarter
Mar 11
New
Mar 19
First Quarter
Mar 27
Full

Hourly Weather History & Observations

Time (CST) Temp. Windchill Dew Point Humidity Pressure Visibility Wind Dir Wind Speed Gust Speed Precip Events Conditions
12:54 AM 24.8 °F 13.4 °F 19.4 °F 80% 30.00 in 9.0 mi NW 12.7 mph - N/A   Overcast
1:54 AM 24.1 °F 11.5 °F 19.0 °F 81% 30.05 in 10.0 mi NW 15.0 mph - N/A   Overcast
2:50 AM 24.8 °F 13.4 °F 19.4 °F 80% 30.01 in 10.0 mi NW 12.7 mph - N/A   Overcast
2:54 AM 24.1 °F 13.1 °F 19.0 °F 81% 30.04 in 10.0 mi NW 11.5 mph - N/A   Overcast
3:09 AM 24.1 °F 13.1 °F 19.0 °F 81% 30.01 in 10.0 mi NW 11.5 mph - N/A   Overcast
3:30 AM 24.1 °F 12.5 °F 19.0 °F 81% 30.02 in 10.0 mi NW 12.7 mph - N/A   Overcast
3:54 AM 24.1 °F 13.1 °F 19.0 °F 81% 30.05 in 10.0 mi NNW 11.5 mph - N/A   Overcast
4:15 AM 25.0 °F 14.2 °F 19.0 °F 78% 30.02 in 10.0 mi NW 11.5 mph - N/A   Overcast
4:54 AM 25.0 °F 14.2 °F 19.9 °F 81% 30.07 in 10.0 mi NW 11.5 mph - N/A   Overcast
5:54 AM 26.1 °F 14.5 °F 19.9 °F 78% 30.09 in 10.0 mi NNW 13.8 mph - N/A   Overcast
6:54 AM 25.0 °F 12.2 °F 19.0 °F 78% 30.11 in 10.0 mi NW 16.1 mph - N/A   Overcast
7:44 AM 24.1 °F 13.1 °F 19.0 °F 81% 30.09 in 9.0 mi NW 11.5 mph - N/A   Overcast
7:54 AM 24.1 °F 13.1 °F 18.0 °F 77% 30.13 in 9.0 mi NW 11.5 mph - N/A   Overcast
8:54 AM 24.1 °F 14.4 °F 18.0 °F 77% 30.16 in 9.0 mi NW 9.2 mph - N/A   Overcast
9:54 AM 26.1 °F 16.2 °F 19.0 °F 75% 30.16 in 10.0 mi NNW 10.4 mph - N/A   Overcast
10:54 AM 28.0 °F 20.0 °F 21.0 °F 75% 30.17 in 10.0 mi NW 8.1 mph - N/A   Overcast
11:54 AM 30.9 °F 21.2 °F 21.9 °F 69% 30.17 in 10.0 mi NNW 12.7 mph 20.7 mph N/A   Overcast
12:54 PM 32.0 °F 22.1 °F 23.0 °F 69% 30.17 in 10.0 mi NW 13.8 mph - N/A   Overcast
1:54 PM 32.0 °F 22.1 °F 23.0 °F 69% 30.12 in 10.0 mi NW 13.8 mph - N/A Snow Light Snow
2:23 PM 32.0 °F 23.0 °F 23.0 °F 69% 30.12 in 10.0 mi NW 11.5 mph - 0.00 in   Overcast
2:54 PM 32.0 °F 21.6 °F 23.0 °F 69% 30.16 in 10.0 mi NW 15.0 mph - 0.00 in   Overcast
3:30 PM 30.9 °F 20.7 °F 23.0 °F 72% 30.13 in 10.0 mi NW 13.8 mph - N/A   Overcast
3:54 PM 30.9 °F 21.7 °F 24.1 °F 76% 30.17 in 9.0 mi NNW 11.5 mph - 0.00 in Snow Light Snow
4:47 PM 30.9 °F 22.2 °F 24.1 °F 76% 30.14 in 9.0 mi NNW 10.4 mph - 0.00 in Snow Light Snow
4:54 PM 30.9 °F 22.8 °F 24.1 °F 76% 30.17 in 9.0 mi NW 9.2 mph - 0.00 in Snow Light Snow
5:54 PM 30.9 °F 22.8 °F 24.1 °F 76% 30.19 in 9.0 mi NNW 9.2 mph - 0.00 in Snow Light Snow
6:39 PM 30.0 °F 23.2 °F 23.0 °F 75% 30.16 in 9.0 mi NNW 6.9 mph - 0.00 in Snow Light Snow
6:54 PM 30.0 °F 22.4 °F 23.0 °F 75% 30.19 in 9.0 mi North 8.1 mph - 0.00 in Snow Light Snow
7:54 PM 30.0 °F 21.7 °F 23.0 °F 75% 30.20 in 10.0 mi NNW 9.2 mph - 0.00 in Snow Light Snow
8:17 PM 30.0 °F 23.2 °F 23.0 °F 75% 30.16 in 9.0 mi NW 6.9 mph - 0.00 in Snow Light Snow
8:54 PM 28.9 °F 20.4 °F 23.0 °F 78% 30.20 in 9.0 mi NNW 9.2 mph - 0.00 in Snow Light Snow
9:29 PM 28.9 °F 20.4 °F 23.0 °F 78% 30.17 in 9.0 mi NNW 9.2 mph - 0.00 in Snow Light Snow
9:54 PM 28.9 °F 20.4 °F 23.0 °F 78% 30.20 in 9.0 mi NW 9.2 mph - 0.00 in Snow Light Snow
10:54 PM 28.0 °F 19.3 °F 23.0 °F 81% 30.20 in 9.0 mi NNW 9.2 mph - 0.00 in Snow Light Snow
11:54 PM 28.0 °F 20.0 °F 21.9 °F 78% 30.19 in 9.0 mi North 8.1 mph - 0.00 in Snow Light Snow